Index of /ubuntu/dists

[ICO]NameLast modifiedSize

[PARENTDIR]Parent Directory  -
[DIR]trusty/2015-10-07 11:44 -
[DIR]xenial/2016-04-21 07:43 -
[DIR]trusty-backports/2017-12-15 09:49 -
[DIR]bionic/2018-04-26 23:38 -
[DIR]focal/2020-04-23 17:34 -
[DIR]trusty-security/2020-05-29 08:06 -
[DIR]trusty-updates/2020-05-29 08:08 -
[DIR]trusty-proposed/2020-06-06 06:57 -
[DIR]jammy/2022-04-21 17:16 -
[DIR]kinetic/2022-10-20 19:48 -
[DIR]devel-backports/2022-11-29 20:39 -
[DIR]lunar-backports/2022-11-29 20:39 -
[DIR]devel-security/2022-11-29 22:45 -
[DIR]lunar-security/2022-11-29 22:45 -
[DIR]devel-updates/2022-11-29 22:45 -
[DIR]lunar-updates/2022-11-29 22:45 -
[DIR]xenial-proposed/2022-12-07 14:47 -
[DIR]kinetic-security/2022-12-08 03:57 -
[DIR]kinetic-updates/2022-12-08 03:57 -
[DIR]kinetic-backports/2022-12-08 03:57 -
[DIR]jammy-security/2022-12-08 03:58 -
[DIR]jammy-updates/2022-12-08 03:58 -
[DIR]jammy-backports/2022-12-08 03:58 -
[DIR]focal-security/2022-12-08 03:59 -
[DIR]focal-updates/2022-12-08 04:01 -
[DIR]focal-proposed/2022-12-08 04:01 -
[DIR]focal-backports/2022-12-08 04:01 -
[DIR]bionic-security/2022-12-08 04:02 -
[DIR]bionic-updates/2022-12-08 04:04 -
[DIR]bionic-proposed/2022-12-08 04:04 -
[DIR]bionic-backports/2022-12-08 04:04 -
[DIR]xenial-security/2022-12-08 04:05 -
[DIR]xenial-updates/2022-12-08 04:06 -
[DIR]xenial-backports/2022-12-08 04:06 -
[DIR]devel/2022-12-08 05:07 -
[DIR]lunar/2022-12-08 05:07 -
[DIR]devel-proposed/2022-12-08 05:07 -
[DIR]lunar-proposed/2022-12-08 05:07 -
[DIR]kinetic-proposed/2022-12-08 05:08 -
[DIR]jammy-proposed/2022-12-08 05:08 -

Apache/2.4.29 (Ubuntu) Server at im.archive.ubuntu.com Port 80